START_TIME,STEP,MOV.,M34,t_acc.,L5,t_acc.,L18,t_acc.,L14,t_acc.
1979-03-08 22:23:11.310 ,0,0,0.,12.0,0.,12.0,0.,12.0,0.,12.0
1979-03-08 22:23:23.310 ,0,0,0.,12.0,0.,12.0,0.,12.0,0.,12.0
1979-03-08 22:23:34.710 ,0,1,0.,12.0,0.,12.0,0.,12.0,0.,12.0
1979-03-08 22:23:46.710 ,0,1,0.,12.0,0.,12.0,0.,12.0,0.,12.0
1979-03-08 22:23:58.710 ,1,1,0.,12.0,0.,12.0,0.,12.0,0.,12.0
1979-03-08 22:24:10.710 ,1,1,0.,12.0,0.,12.0,0.,12.0,0.,12.0
1979-03-08 22:24:22.710 ,2,1,0.,12.0,0.,12.0,0.,12.0,0.,12.0
1979-03-08 22:24:34.710 ,2,1,0.,12.0,0.,12.0,0.,12.0,0.,12.0
1979-03-08 22:24:46.710 ,3,1,0.,12.0,0.,12.0,0.,12.0,0.,12.0
1979-03-08 22:24:58.710 ,3,1,0.,12.0,0.,12.0,0.,12.0,0.,12.0
1979-03-08 22:25:10.710 ,4,1,0.,12.0,0.,12.0,0.,12.0,0.,12.0
1979-03-08 22:25:22.710 ,4,1,0.,12.0,0.,12.0,0.,12.0,0.,12.0
1979-03-08 22:25:34.710 ,5,1,0.,12.0,1.,12.0,0.,12.0,0.,12.0
1979-03-08 22:25:46.710 ,5,1,0.,12.0,0.,12.0,0.,12.0,0.,12.0
1979-03-08 22:25:58.710 ,6,1,0.,12.0,0.,12.0,0.,12.0,0.,12.0
1979-03-08 22:26:10.710 ,6,1,0.,12.0,0.,12.0,0.,12.0,0.,12.0
1979-03-08 22:26:22.710 ,7,1,0.,12.0,0.,12.0,0.,12.0,0.,12.0
1979-03-08 22:26:34.710 ,7,1,0.,12.0,0.,12.0,0.,12.0,0.,12.0
1979-03-08 22:26:46.710 ,7,1,0.,12.0,0.,12.0,0.,12.0,0.,12.0
1979-03-08 22:26:58.710 ,7,1,0.,12.0,0.,12.0,0.,12.0,0.,12.0
1979-03-08 22:27:10.710 ,6,1,0.,12.0,0.,12.0,0.,12.0,0.,12.0
1979-03-08 22:27:22.710 ,6,1,0.,12.0,0.,12.0,0.,12.0,0.,12.0
1979-03-08 22:27:34.710 ,5,1,0.,12.0,0.,12.0,0.,12.0,0.,12.0
1979-03-08 22:27:46.710 ,5,1,0.,12.0,0.,12.0,0.,12.0,0.,12.0
1979-03-08 22:27:58.710 ,4,1,0.,12.0,0.,12.0,0.,12.0,0.,12.0
1979-03-08 22:28:10.710 ,4,1,0.,12.0,0.,12.0,0.,12.0,0.,12.0
1979-03-08 22:28:22.710 ,3,1,0.,12.0,0.,12.0,0.,12.0,0.,12.0
1979-03-08 22:28:34.710 ,3,1,0.,12.0,0.,12.0,0.,12.0,0.,12.0
1979-03-08 22:28:46.710 ,2,1,0.,12.0,0.,12.0,0.,12.0,0.,12.0
1979-03-08 22:28:58.710 ,2,1,0.,12.0,0.,12.0,0.,12.0,0.,12.0
1979-03-08 22:29:10.710 ,1,1,0.,12.0,0.,12.0,0.,12.0,0.,12.0
1979-03-08 22:29:22.710 ,1,1,0.,12.0,0.,12.0,0.,12.0,0.,12.0
1979-03-08 22:29:34.710 ,0,1,0.,12.0,0.,12.0,0.,12.0,0.,12.0
1979-03-08 22:29:46.710 ,0,1,0.,12.0,0.,12.0,0.,12.0,0.,12.0
1979-03-08 22:29:58.710 ,0,1,0.,12.0,0.,12.0,0.,12.0,0.,12.0
1979-03-08 22:30:10.710 ,0,1,0.,12.0,0.,12.0,0.,12.0,0.,12.0
1979-03-08 22:30:22.710 ,1,1,0.,12.0,0.,12.0,0.,12.0,0.,12.0
1979-03-08 22:30:34.710 ,1,1,0.,12.0,0.,12.0,0.,12.0,0.,12.0
1979-03-08 22:30:46.710 ,2,1,0.,12.0,0.,12.0,0.,12.0,0.,12.0
1979-03-08 22:30:58.710 ,2,1,0.,12.0,0.,12.0,0.,12.0,0.,12.0
1979-03-08 22:31:10.710 ,3,1,0.,12.0,0.,12.0,0.,12.0,0.,12.0
1979-03-08 22:31:22.710 ,3,1,0.,12.0,0.,12.0,0.,12.0,0.,12.0
1979-03-08 22:31:34.710 ,4,1,0.,12.0,0.,12.0,0.,12.0,0.,12.0
1979-03-08 22:31:46.710 ,4,1,0.,12.0,0.,12.0,0.,12.0,0.,12.0
1979-03-08 22:31:58.710 ,5,1,0.,12.0,0.,12.0,0.,12.0,0.,12.0
1979-03-08 22:32:10.710 ,5,1,0.,12.0,0.,12.0,0.,12.0,0.,12.0
1979-03-08 22:32:22.710 ,6,1,0.,12.0,0.,12.0,0.,12.0,0.,12.0
1979-03-08 22:32:34.710 ,6,1,0.,12.0,0.,12.0,0.,12.0,0.,12.0
1979-03-08 22:32:46.710 ,7,1,0.,12.0,0.,12.0,0.,12.0,0.,12.0
1979-03-08 22:32:58.710 ,7,1,0.,12.0,0.,12.0,0.,12.0,0.,12.0
1979-03-08 22:33:10.710 ,7,1,0.,12.0,0.,12.0,0.,12.0,0.,12.0
1979-03-08 22:33:22.710 ,7,1,0.,12.0,0.,12.0,0.,12.0,0.,12.0
1979-03-08 22:33:34.710 ,6,1,0.,12.0,0.,12.0,0.,12.0,0.,12.0
1979-03-08 22:33:46.710 ,6,1,0.,12.0,0.,12.0,0.,12.0,0.,12.0
1979-03-08 22:33:58.710 ,5,1,0.,12.0,0.,12.0,0.,12.0,0.,12.0
1979-03-08 22:34:10.710 ,5,1,0.,12.0,0.,12.0,0.,12.0,0.,12.0
1979-03-08 22:34:22.710 ,4,1,0.,12.0,0.,12.0,0.,12.0,0.,12.0
1979-03-08 22:34:34.710 ,4,1,0.,12.0,0.,12.0,0.,12.0,0.,12.0
1979-03-08 22:34:46.710 ,3,1,0.,12.0,0.,12.0,0.,12.0,0.,12.0
1979-03-08 22:34:58.710 ,3,1,0.,12.0,0.,12.0,0.,12.0,0.,12.0
1979-03-08 22:35:10.710 ,2,1,0.,12.0,0.,12.0,0.,12.0,0.,12.0
1979-03-08 22:35:22.710 ,2,1,0.,12.0,0.,12.0,0.,12.0,0.,12.0
1979-03-08 22:35:34.710 ,1,1,0.,12.0,0.,12.0,0.,12.0,0.,12.0
1979-03-08 22:35:46.710 ,1,1,0.,12.0,0.,12.0,0.,12.0,0.,12.0
1979-03-08 22:35:58.710 ,0,1,,0,,0,,0,,0
1979-03-08 22:36:10.710 ,0,1,0.,12.0,0.,12.0,0.,12.0,0.,12.0
1979-03-08 22:36:22.710 ,0,1,0.,12.0,0.,12.0,0.,12.0,0.,12.0
1979-03-08 22:36:34.710 ,0,1,0.,12.0,0.,12.0,0.,12.0,0.,12.0
1979-03-08 22:36:46.710 ,1,1,0.,12.0,0.,12.0,0.,12.0,0.,12.0
1979-03-08 22:36:58.710 ,1,1,0.,12.0,0.,12.0,0.,12.0,0.,12.0
1979-03-08 22:37:10.710 ,2,1,0.,12.0,0.,12.0,0.,12.0,0.,12.0
1979-03-08 22:37:22.710 ,2,1,0.,12.0,0.,12.0,0.,12.0,0.,12.0
1979-03-08 22:37:34.710 ,3,1,0.,12.0,0.,12.0,0.,12.0,0.,12.0
1979-03-08 22:37:46.710 ,3,1,0.,12.0,0.,12.0,0.,12.0,0.,12.0
1979-03-08 22:37:58.710 ,4,1,0.,12.0,0.,12.0,0.,12.0,0.,12.0
1979-03-08 22:38:10.710 ,4,1,0.,12.0,0.,12.0,0.,12.0,0.,12.0
1979-03-08 22:38:22.710 ,5,1,0.,12.0,0.,12.0,0.,12.0,0.,12.0
1979-03-08 22:38:34.710 ,5,1,0.,12.0,0.,12.0,0.,12.0,0.,12.0
1979-03-08 22:38:46.710 ,6,1,0.,12.0,0.,12.0,0.,12.0,0.,12.0
1979-03-08 22:38:58.710 ,6,1,0.,12.0,0.,12.0,0.,12.0,0.,12.0
1979-03-08 22:39:10.710 ,7,1,0.,12.0,0.,12.0,0.,12.0,0.,12.0
1979-03-08 22:39:22.710 ,7,1,0.,12.0,0.,12.0,0.,12.0,0.,12.0
1979-03-08 22:42:22.710 ,0,1,0.,12.0,0.,12.0,0.,12.0,0.,12.0
1979-03-08 22:42:34.710 ,0,1,0.,12.0,0.,12.0,0.,12.0,0.,12.0
1979-03-08 22:42:46.710 ,0,1,0.,12.0,0.,12.0,0.,12.0,0.,12.0
1979-03-08 22:42:58.710 ,0,1,0.,12.0,0.,12.0,0.,12.0,0.,12.0
1979-03-08 22:43:10.710 ,1,1,0.,12.0,0.,12.0,0.,12.0,0.,12.0
1979-03-08 22:43:22.710 ,1,1,0.,12.0,0.,12.0,0.,12.0,0.,12.0
1979-03-08 22:43:34.710 ,2,1,0.,12.0,0.,12.0,0.,12.0,0.,12.0
1979-03-08 22:43:46.710 ,2,1,0.,12.0,0.,12.0,0.,12.0,0.,12.0
1979-03-08 22:43:58.710 ,3,1,0.,12.0,0.,12.0,0.,12.0,0.,12.0
1979-03-08 22:44:10.710 ,3,1,0.,12.0,0.,12.0,0.,12.0,0.,12.0
1979-03-08 22:44:22.710 ,4,1,0.,12.0,0.,12.0,0.,12.0,0.,12.0
1979-03-08 22:44:34.710 ,4,1,0.,12.0,0.,12.0,0.,12.0,0.,12.0
1979-03-08 22:44:46.710 ,5,1,0.,12.0,0.,12.0,0.,12.0,0.,12.0
1979-03-08 22:44:58.710 ,5,1,0.,12.0,0.,12.0,0.,12.0,0.,12.0
1979-03-08 22:55:10.710 ,0,1,0.,12.0,0.,12.0,0.,12.0,0.,12.0
1979-03-08 22:55:22.710 ,0,1,0.,12.0,0.,12.0,0.,12.0,0.,12.0
1979-03-08 22:55:34.710 ,0,1,0.,12.0,0.,12.0,0.,12.0,0.,12.0
1979-03-08 22:55:46.710 ,0,1,0.,12.0,0.,12.0,0.,12.0,0.,12.0
1979-03-08 22:55:58.710 ,1,1,0.,12.0,0.,12.0,0.,12.0,0.,12.0
1979-03-08 22:56:10.710 ,1,1,0.,12.0,0.,12.0,0.,12.0,0.,12.0
1979-03-08 22:56:22.710 ,2,1,0.,12.0,0.,12.0,0.,12.0,0.,12.0
1979-03-08 22:56:34.710 ,2,1,0.,12.0,0.,12.0,0.,12.0,0.,12.0
1979-03-08 22:56:46.710 ,3,1,0.,12.0,1.,12.0,0.,12.0,0.,12.0
1979-03-08 22:56:58.710 ,3,1,0.,12.0,0.,12.0,0.,12.0,0.,12.0
1979-03-08 22:57:10.710 ,4,1,0.,12.0,0.,12.0,0.,12.0,0.,12.0
1979-03-08 22:57:22.710 ,4,1,0.,12.0,0.,12.0,0.,12.0,0.,12.0
1979-03-08 22:57:34.710 ,5,1,0.,12.0,0.,12.0,0.,12.0,0.,12.0
1979-03-08 22:57:46.710 ,5,1,0.,12.0,0.,12.0,0.,12.0,0.,12.0
1979-03-08 22:57:58.710 ,6,1,0.,12.0,0.,12.0,0.,12.0,0.,12.0
1979-03-08 22:58:10.710 ,6,1,0.,12.0,0.,12.0,0.,12.0,0.,12.0
1979-03-08 22:58:22.710 ,7,1,0.,12.0,0.,12.0,0.,12.0,0.,12.0
1979-03-08 22:58:34.710 ,7,1,0.,12.0,0.,12.0,0.,12.0,0.,12.0
1979-03-08 22:58:46.710 ,7,1,0.,12.0,0.,12.0,0.,12.0,0.,12.0
1979-03-08 22:58:58.710 ,7,1,0.,12.0,0.,12.0,0.,12.0,0.,12.0
1979-03-08 22:59:10.710 ,6,1,0.,12.0,0.,12.0,0.,12.0,0.,12.0
1979-03-08 22:59:22.710 ,6,1,0.,12.0,0.,12.0,0.,12.0,0.,12.0
1979-03-08 22:59:34.710 ,5,1,0.,12.0,0.,12.0,0.,12.0,0.,12.0
1979-03-08 22:59:46.710 ,5,1,0.,12.0,0.,12.0,0.,12.0,0.,12.0
1979-03-08 22:59:58.710 ,4,1,0.,12.0,0.,12.0,0.,12.0,0.,12.0
1979-03-08 23:00:10.710 ,4,1,0.,12.0,0.,12.0,0.,12.0,0.,12.0
1979-03-08 23:00:22.710 ,3,1,0.,12.0,0.,12.0,0.,12.0,0.,12.0
1979-03-08 23:00:34.710 ,3,1,0.,12.0,0.,12.0,0.,12.0,0.,12.0
1979-03-08 23:00:46.710 ,2,1,0.,12.0,0.,12.0,0.,12.0,0.,12.0
1979-03-08 23:00:58.710 ,2,1,0.,12.0,0.,12.0,0.,12.0,0.,12.0
1979-03-08 23:01:10.710 ,1,1,0.,12.0,0.,12.0,0.,12.0,0.,12.0
1979-03-08 23:01:22.710 ,1,1,0.,12.0,0.,12.0,0.,12.0,0.,12.0
1979-03-08 23:01:34.710 ,0,1,0.,12.0,0.,12.0,0.,12.0,0.,12.0
1979-03-08 23:01:46.710 ,0,1,0.,12.0,0.,12.0,0.,12.0,0.,12.0
1979-03-08 23:01:58.710 ,0,1,0.,12.0,0.,12.0,0.,12.0,0.,12.0
1979-03-08 23:02:10.710 ,0,1,0.,12.0,0.,12.0,0.,12.0,0.,12.0
1979-03-08 23:02:22.710 ,1,1,0.,12.0,0.,12.0,0.,12.0,0.,12.0
1979-03-08 23:02:34.710 ,1,1,0.,12.0,0.,12.0,0.,12.0,0.,12.0
1979-03-08 23:02:46.710 ,1,0,0.,12.0,0.,12.0,0.,12.0,0.,12.0
1979-03-08 23:02:58.710 ,1,0,,0,,0,,0,,0
1979-03-08 23:03:10.710 ,3,1,0.,12.0,0.,12.0,0.,12.0,0.,12.0
1979-03-08 23:03:22.710 ,3,1,0.,12.0,0.,12.0,0.,12.0,0.,12.0
1979-03-08 23:03:34.710 ,4,1,0.,12.0,0.,12.0,0.,12.0,0.,12.0
1979-03-08 23:03:46.710 ,4,1,0.,12.0,0.,12.0,0.,12.0,0.,12.0
1979-03-08 23:03:58.710 ,5,1,0.,12.0,0.,12.0,0.,12.0,0.,12.0
1979-03-08 23:04:10.710 ,5,1,0.,12.0,0.,12.0,0.,12.0,0.,12.0
1979-03-08 23:04:22.710 ,6,1,0.,12.0,0.,12.0,0.,12.0,0.,12.0
1979-03-08 23:04:34.710 ,6,1,0.,12.0,0.,12.0,0.,12.0,0.,12.0
1979-03-08 23:04:46.710 ,7,1,0.,12.0,0.,12.0,0.,12.0,0.,12.0
1979-03-08 23:04:58.710 ,7,1,0.,12.0,0.,12.0,0.,12.0,0.,12.0
1979-03-08 23:05:10.710 ,7,1,0.,12.0,0.,12.0,0.,12.0,0.,12.0
1979-03-08 23:05:22.710 ,7,1,0.,12.0,0.,12.0,0.,12.0,0.,12.0
1979-03-08 23:05:34.710 ,6,1,0.,12.0,0.,12.0,0.,12.0,0.,12.0
1979-03-08 23:05:46.710 ,6,1,0.,12.0,0.,12.0,0.,12.0,0.,12.0
1979-03-08 23:05:58.710 ,5,1,0.,12.0,0.,12.0,0.,12.0,0.,12.0
1979-03-08 23:06:10.710 ,5,1,0.,12.0,0.,12.0,0.,12.0,0.,12.0
1979-03-08 23:06:22.710 ,4,1,0.,12.0,0.,12.0,0.,12.0,0.,12.0
1979-03-08 23:06:34.710 ,4,1,0.,12.0,0.,12.0,0.,12.0,0.,12.0
1979-03-08 23:06:46.710 ,3,1,0.,12.0,0.,12.0,0.,12.0,0.,12.0
1979-03-08 23:06:58.710 ,3,1,0.,12.0,0.,12.0,0.,12.0,0.,12.0
1979-03-08 23:07:10.710 ,2,1,0.,12.0,0.,12.0,0.,12.0,0.,12.0
1979-03-08 23:07:22.710 ,2,1,0.,12.0,0.,12.0,0.,12.0,0.,12.0
1979-03-08 23:07:34.710 ,1,1,0.,12.0,0.,12.0,0.,12.0,0.,12.0
1979-03-08 23:07:46.710 ,1,1,0.,12.0,0.,12.0,0.,12.0,0.,12.0
1979-03-08 23:07:58.710 ,0,1,0.,12.0,0.,12.0,0.,12.0,0.,12.0
1979-03-08 23:08:10.710 ,0,1,0.,12.0,0.,12.0,0.,12.0,0.,12.0
1979-03-08 23:08:22.710 ,0,1,0.,12.0,0.,12.0,0.,12.0,0.,12.0
1979-03-08 23:08:34.710 ,0,1,0.,12.0,0.,12.0,0.,12.0,0.,12.0
1979-03-08 23:08:46.710 ,1,1,0.,12.0,1.,12.0,0.,12.0,0.,12.0
1979-03-08 23:08:58.710 ,1,1,0.,12.0,0.,12.0,0.,12.0,0.,12.0
1979-03-08 23:09:10.710 ,2,1,0.,12.0,0.,12.0,0.,12.0,0.,12.0
1979-03-08 23:09:22.710 ,2,1,0.,12.0,0.,12.0,0.,12.0,0.,12.0
1979-03-08 23:09:34.710 ,0,0,,0,,0,,0,,0
1979-03-08 23:09:46.710 ,0,0,,0,,0,,0,,0
1979-03-08 23:09:58.710 ,0,0,,0,,0,,0,,0
1979-03-08 23:10:10.710 ,0,0,,0,,0,,0,,0
1979-03-08 23:09:58.710 ,4,1,0.,12.0,0.,12.0,0.,12.0,0.,12.0
1979-03-08 23:10:10.710 ,4,1,0.,12.0,0.,12.0,0.,12.0,0.,12.0
1979-03-08 23:10:22.710 ,5,1,0.,12.0,0.,12.0,0.,12.0,0.,12.0
1979-03-08 23:10:34.710 ,5,1,0.,12.0,0.,12.0,0.,12.0,0.,12.0
1979-03-08 23:10:46.710 ,6,1,0.,12.0,0.,12.0,0.,12.0,0.,12.0
1979-03-08 23:10:58.710 ,6,1,0.,12.0,0.,12.0,0.,12.0,0.,12.0
1979-03-08 23:11:10.710 ,7,1,0.,12.0,0.,12.0,0.,12.0,0.,12.0
1979-03-08 23:11:22.710 ,7,1,0.,12.0,0.,12.0,0.,12.0,0.,12.0
1979-03-08 23:11:34.710 ,7,1,0.,12.0,0.,12.0,0.,12.0,0.,12.0
1979-03-08 23:11:46.710 ,7,1,0.,12.0,0.,12.0,0.,12.0,0.,12.0
1979-03-08 23:11:58.710 ,6,1,0.,12.0,0.,12.0,0.,12.0,0.,12.0
1979-03-08 23:12:10.710 ,6,1,0.,12.0,0.,12.0,0.,12.0,0.,12.0
1979-03-08 23:12:22.710 ,5,1,0.,12.0,0.,12.0,0.,12.0,0.,12.0
1979-03-08 23:12:34.710 ,5,1,0.,12.0,0.,12.0,0.,12.0,0.,12.0
1979-03-08 23:12:46.710 ,4,1,0.,12.0,0.,12.0,0.,12.0,0.,12.0
1979-03-08 23:12:58.710 ,4,1,0.,12.0,0.,12.0,0.,12.0,0.,12.0
1979-03-08 23:13:10.710 ,3,1,0.,12.0,0.,12.0,0.,12.0,0.,12.0
1979-03-08 23:13:22.710 ,3,1,0.,12.0,0.,12.0,0.,12.0,0.,12.0
1979-03-08 23:13:34.710 ,2,1,0.,12.0,0.,12.0,0.,12.0,0.,12.0
1979-03-08 23:13:46.710 ,2,1,0.,12.0,0.,12.0,0.,12.0,0.,12.0
1979-03-08 23:13:58.710 ,1,1,0.,12.0,0.,12.0,0.,12.0,0.,12.0
1979-03-08 23:14:10.710 ,1,1,0.,12.0,0.,12.0,0.,12.0,0.,12.0
1979-03-08 23:14:22.710 ,0,1,0.,12.0,0.,12.0,0.,12.0,0.,12.0
1979-03-08 23:14:34.710 ,0,1,0.,12.0,0.,12.0,0.,12.0,0.,12.0
1979-03-08 23:14:46.710 ,0,1,0.,12.0,0.,12.0,0.,12.0,0.,12.0
1979-03-08 23:14:58.710 ,0,1,0.,12.0,0.,12.0,0.,12.0,0.,12.0
1979-03-08 23:15:10.710 ,1,1,0.,12.0,0.,12.0,0.,12.0,0.,12.0
1979-03-08 23:15:22.710 ,1,1,0.,12.0,0.,12.0,0.,12.0,0.,12.0
1979-03-08 23:15:34.710 ,2,1,0.,12.0,0.,12.0,0.,12.0,0.,12.0
1979-03-08 23:15:46.710 ,2,1,0.,12.0,0.,12.0,0.,12.0,0.,12.0
1979-03-08 23:15:58.710 ,3,1,0.,12.0,0.,12.0,0.,12.0,0.,12.0
1979-03-08 23:16:10.710 ,3,1,0.,12.0,0.,12.0,0.,12.0,0.,12.0
1979-03-08 23:16:22.710 ,4,1,0.,12.0,0.,12.0,0.,12.0,0.,12.0
1979-03-08 23:16:34.710 ,4,1,0.,12.0,0.,12.0,0.,12.0,0.,12.0
1979-03-08 23:16:46.710 ,5,1,0.,12.0,0.,12.0,0.,12.0,0.,12.0
1979-03-08 23:16:58.710 ,5,1,0.,12.0,0.,12.0,0.,12.0,0.,12.0
1979-03-08 23:17:10.710 ,6,1,0.,12.0,0.,12.0,0.,12.0,0.,12.0
1979-03-08 23:17:22.710 ,6,1,0.,12.0,0.,12.0,0.,12.0,0.,12.0
1979-03-08 23:17:34.710 ,7,1,0.,12.0,0.,12.0,0.,12.0,0.,12.0
1979-03-08 23:17:46.710 ,7,1,0.,12.0,0.,12.0,0.,12.0,0.,12.0
1979-03-08 23:17:58.710 ,7,1,0.,12.0,0.,12.0,0.,12.0,0.,12.0
1979-03-08 23:18:10.710 ,7,1,0.,12.0,0.,12.0,0.,12.0,0.,12.0
1979-03-08 23:18:22.710 ,6,1,0.,12.0,0.,12.0,0.,12.0,0.,12.0
1979-03-08 23:18:34.710 ,6,1,0.,12.0,0.,12.0,0.,12.0,0.,12.0
1979-03-08 23:18:46.710 ,5,1,0.,12.0,0.,12.0,0.,12.0,0.,12.0
1979-03-08 23:18:58.710 ,5,1,0.,12.0,0.,12.0,0.,12.0,0.,12.0
1979-03-08 23:19:10.710 ,4,1,0.,12.0,0.,12.0,0.,12.0,0.,12.0
1979-03-08 23:19:22.710 ,4,1,0.,12.0,0.,12.0,0.,12.0,0.,12.0
1979-03-08 23:19:34.710 ,3,1,0.,12.0,0.,12.0,0.,12.0,0.,12.0
1979-03-08 23:19:46.710 ,3,1,0.,12.0,0.,12.0,0.,12.0,0.,12.0
1979-03-08 23:19:58.710 ,2,1,0.,12.0,0.,12.0,0.,12.0,0.,12.0
1979-03-08 23:20:10.710 ,2,1,0.,12.0,0.,12.0,0.,12.0,0.,12.0
1979-03-08 23:20:22.710 ,1,1,0.,12.0,0.,12.0,0.,12.0,0.,12.0
1979-03-08 23:20:34.710 ,1,1,0.,12.0,0.,12.0,0.,12.0,0.,12.0
1979-03-08 23:20:46.710 ,0,1,0.,12.0,0.,12.0,0.,12.0,0.,12.0
1979-03-08 23:20:58.710 ,0,1,0.,12.0,0.,12.0,0.,12.0,0.,12.0
1979-03-08 23:21:10.710 ,0,1,0.,12.0,0.,12.0,0.,12.0,0.,12.0
1979-03-08 23:21:22.710 ,0,1,0.,12.0,0.,12.0,0.,12.0,0.,12.0
1979-03-08 23:21:43.710 ,1,1,,0,,0,,0,,0
1979-03-08 23:21:55.710 ,1,1,0.,12.0,0.,12.0,0.,12.0,0.,12.0
1979-03-08 23:21:58.710 ,2,1,0.,12.0,0.,12.0,0.,12.0,0.,12.0
1979-03-08 23:22:10.710 ,2,1,0.,12.0,0.,12.0,0.,12.0,0.,12.0
1979-03-08 23:22:22.710 ,3,1,0.,12.0,0.,12.0,0.,12.0,0.,12.0
1979-03-08 23:22:34.710 ,3,1,0.,12.0,0.,12.0,0.,12.0,0.,12.0
1979-03-08 23:22:46.710 ,4,1,0.,12.0,0.,12.0,0.,12.0,0.,12.0
1979-03-08 23:22:58.710 ,4,1,0.,12.0,0.,12.0,0.,12.0,0.,12.0
1979-03-08 23:23:10.710 ,5,1,0.,12.0,0.,12.0,0.,12.0,0.,12.0
1979-03-08 23:23:22.710 ,5,1,0.,12.0,0.,12.0,0.,12.0,0.,12.0
1979-03-08 23:23:34.710 ,6,1,0.,12.0,0.,12.0,0.,12.0,0.,12.0
1979-03-08 23:23:46.710 ,6,1,0.,12.0,0.,12.0,0.,12.0,0.,12.0
1979-03-08 23:23:58.710 ,7,1,0.,12.0,0.,12.0,0.,12.0,0.,12.0
1979-03-08 23:24:10.710 ,7,1,0.,12.0,0.,12.0,0.,12.0,0.,12.0
1979-03-08 23:24:22.710 ,7,1,0.,12.0,0.,12.0,0.,12.0,0.,12.0
1979-03-08 23:24:34.710 ,7,1,0.,12.0,0.,12.0,0.,12.0,0.,12.0
1979-03-08 23:24:46.710 ,6,1,0.,12.0,0.,12.0,0.,12.0,0.,12.0
1979-03-08 23:24:58.710 ,6,1,0.,12.0,0.,12.0,0.,12.0,0.,12.0
1979-03-08 23:25:10.710 ,5,1,0.,12.0,0.,12.0,0.,12.0,0.,12.0
1979-03-08 23:25:22.710 ,5,1,0.,12.0,0.,12.0,0.,12.0,0.,12.0
1979-03-08 23:25:34.710 ,4,1,0.,12.0,0.,12.0,0.,12.0,0.,12.0
1979-03-08 23:25:46.710 ,4,1,0.,12.0,0.,12.0,0.,12.0,0.,12.0
1979-03-08 23:25:58.710 ,3,1,0.,12.0,0.,12.0,0.,12.0,0.,12.0
1979-03-08 23:26:10.710 ,3,1,0.,12.0,0.,12.0,0.,12.0,0.,12.0
1979-03-08 23:26:22.710 ,2,1,0.,12.0,0.,12.0,0.,12.0,0.,12.0
1979-03-08 23:26:34.710 ,2,1,0.,12.0,0.,12.0,0.,12.0,0.,12.0
1979-03-08 23:26:46.710 ,1,1,0.,12.0,0.,12.0,0.,12.0,0.,12.0
1979-03-08 23:26:58.710 ,1,1,0.,12.0,0.,12.0,0.,12.0,0.,12.0
1979-03-08 23:27:10.710 ,0,1,0.,12.0,0.,12.0,0.,12.0,0.,12.0
1979-03-08 23:27:22.710 ,0,1,0.,12.0,0.,12.0,0.,12.0,0.,12.0
1979-03-08 23:27:34.710 ,0,1,0.,12.0,0.,12.0,0.,12.0,0.,12.0
1979-03-08 23:27:46.710 ,0,1,0.,12.0,0.,12.0,0.,12.0,0.,12.0
1979-03-08 23:27:58.710 ,1,1,0.,12.0,0.,12.0,0.,12.0,0.,12.0
1979-03-08 23:28:10.710 ,1,1,0.,12.0,0.,12.0,0.,12.0,0.,12.0
1979-03-08 23:28:22.710 ,2,1,0.,12.0,0.,12.0,0.,12.0,0.,12.0
1979-03-08 23:28:34.710 ,2,1,0.,12.0,0.,12.0,0.,12.0,0.,12.0
1979-03-08 23:28:46.710 ,3,1,0.,12.0,0.,12.0,0.,12.0,0.,12.0
1979-03-08 23:28:58.710 ,3,1,0.,12.0,0.,12.0,0.,12.0,0.,12.0
1979-03-08 23:29:10.710 ,4,1,0.,12.0,0.,12.0,0.,12.0,0.,12.0
1979-03-08 23:29:22.710 ,4,1,0.,12.0,0.,12.0,0.,12.0,0.,12.0
1979-03-08 23:29:34.710 ,5,1,0.,12.0,0.,12.0,0.,12.0,0.,12.0
1979-03-08 23:29:46.710 ,5,1,0.,12.0,0.,12.0,0.,12.0,0.,12.0
1979-03-08 23:29:58.710 ,5,0,0.,12.0,0.,12.0,0.,12.0,0.,12.0
1979-03-08 23:30:10.710 ,5,0,,0,,0,,0,,0
1979-03-08 23:30:22.710 ,7,1,0.,12.0,0.,12.0,0.,12.0,0.,12.0
1979-03-08 23:30:34.710 ,7,1,0.,12.0,0.,12.0,0.,12.0,0.,12.0
1979-03-08 23:30:46.710 ,7,1,0.,12.0,0.,12.0,0.,12.0,0.,12.0
1979-03-08 23:30:58.710 ,7,1,0.,12.0,0.,12.0,0.,12.0,0.,12.0
1979-03-08 23:31:10.710 ,6,1,0.,12.0,0.,12.0,0.,12.0,0.,12.0
1979-03-08 23:31:22.710 ,6,1,0.,12.0,0.,12.0,0.,12.0,0.,12.0
1979-03-08 23:31:34.710 ,5,1,0.,12.0,0.,12.0,0.,12.0,0.,12.0
1979-03-08 23:31:46.710 ,5,1,0.,12.0,0.,12.0,0.,12.0,0.,12.0
1979-03-08 23:31:58.710 ,4,1,0.,12.0,0.,12.0,0.,12.0,0.,12.0
1979-03-08 23:32:10.710 ,4,1,0.,12.0,0.,12.0,0.,12.0,0.,12.0
1979-03-08 23:32:22.710 ,3,1,0.,12.0,0.,12.0,0.,12.0,0.,12.0
1979-03-08 23:32:34.710 ,3,1,0.,12.0,0.,12.0,0.,12.0,0.,12.0
1979-03-08 23:32:46.710 ,2,1,0.,12.0,0.,12.0,0.,12.0,0.,12.0
1979-03-08 23:32:58.710 ,2,1,0.,12.0,0.,12.0,0.,12.0,0.,12.0
1979-03-08 23:33:10.710 ,1,1,0.,12.0,0.,12.0,0.,12.0,0.,12.0
1979-03-08 23:33:22.710 ,1,1,0.,12.0,0.,12.0,0.,12.0,0.,12.0
1979-03-08 23:33:34.710 ,0,1,0.,12.0,0.,12.0,0.,12.0,0.,12.0
1979-03-08 23:33:46.710 ,0,1,0.,12.0,0.,12.0,0.,12.0,0.,12.0
1979-03-08 23:33:58.710 ,0,1,0.,12.0,0.,12.0,0.,12.0,0.,12.0
1979-03-08 23:34:10.710 ,0,1,0.,12.0,0.,12.0,0.,12.0,0.,12.0
1979-03-08 23:34:22.710 ,1,1,0.,12.0,0.,12.0,0.,12.0,0.,12.0
1979-03-08 23:34:34.710 ,1,1,0.,12.0,0.,12.0,0.,12.0,0.,12.0
1979-03-08 23:34:46.710 ,2,1,0.,12.0,0.,12.0,0.,12.0,0.,12.0
1979-03-08 23:34:58.710 ,2,1,0.,12.0,0.,12.0,0.,12.0,0.,12.0
1979-03-08 23:35:10.710 ,3,1,0.,12.0,0.,12.0,0.,12.0,0.,12.0
1979-03-08 23:35:22.710 ,3,1,0.,12.0,0.,12.0,0.,12.0,0.,12.0
1979-03-08 23:35:34.710 ,4,1,0.,12.0,0.,12.0,0.,12.0,0.,12.0
1979-03-08 23:35:46.710 ,4,1,0.,12.0,0.,12.0,0.,12.0,0.,12.0
1979-03-08 23:35:58.710 ,5,1,0.,12.0,0.,12.0,0.,12.0,0.,12.0
1979-03-08 23:36:10.710 ,5,1,0.,12.0,0.,12.0,0.,12.0,0.,12.0
1979-03-08 23:36:22.710 ,6,1,0.,12.0,0.,12.0,0.,12.0,0.,12.0
1979-03-08 23:36:34.710 ,6,1,0.,12.0,0.,12.0,0.,12.0,0.,12.0
1979-03-08 23:36:46.710 ,7,1,0.,12.0,0.,12.0,0.,12.0,0.,12.0
1979-03-08 23:36:58.710 ,7,1,0.,12.0,0.,12.0,0.,12.0,0.,12.0
1979-03-08 23:37:10.710 ,7,1,0.,12.0,0.,12.0,0.,12.0,0.,12.0
1979-03-08 23:37:22.710 ,7,1,0.,12.0,0.,12.0,0.,12.0,1.,12.0
1979-03-08 23:37:34.710 ,6,1,0.,12.0,0.,12.0,0.,12.0,0.,12.0
1979-03-08 23:37:46.710 ,6,1,0.,12.0,0.,12.0,0.,12.0,0.,12.0
1979-03-08 23:37:58.710 ,5,1,0.,12.0,0.,12.0,0.,12.0,0.,12.0
1979-03-08 23:38:10.710 ,5,1,0.,12.0,0.,12.0,0.,12.0,0.,12.0
1979-03-08 23:38:22.710 ,4,1,0.,12.0,0.,12.0,0.,12.0,0.,12.0
1979-03-08 23:38:34.710 ,4,1,0.,12.0,0.,12.0,0.,12.0,0.,12.0
1979-03-08 23:38:46.710 ,3,1,0.,12.0,0.,12.0,0.,12.0,0.,12.0
1979-03-08 23:38:58.710 ,3,1,0.,12.0,0.,12.0,0.,12.0,0.,12.0
1979-03-08 23:39:10.710 ,2,1,0.,12.0,0.,12.0,0.,12.0,0.,12.0
1979-03-08 23:39:22.710 ,2,1,0.,12.0,0.,12.0,0.,12.0,0.,12.0
1979-03-08 23:39:34.710 ,1,1,0.,12.0,0.,12.0,0.,12.0,0.,12.0
1979-03-08 23:39:46.710 ,1,1,0.,12.0,0.,12.0,0.,12.0,0.,12.0
1979-03-08 23:39:58.710 ,0,1,0.,12.0,0.,12.0,0.,12.0,0.,12.0
1979-03-08 23:40:10.710 ,0,1,0.,12.0,0.,12.0,0.,12.0,0.,12.0
1979-03-08 23:40:22.710 ,0,1,0.,12.0,0.,12.0,0.,12.0,0.,12.0
1979-03-08 23:40:34.710 ,0,1,0.,12.0,0.,12.0,0.,12.0,0.,12.0
1979-03-08 23:40:46.710 ,1,1,0.,12.0,0.,12.0,0.,12.0,0.,12.0
1979-03-08 23:40:58.710 ,1,1,0.,12.0,0.,12.0,0.,12.0,0.,12.0
1979-03-08 23:41:10.710 ,2,1,0.,12.0,0.,12.0,0.,12.0,0.,12.0
1979-03-08 23:41:22.710 ,2,1,0.,12.0,0.,12.0,0.,12.0,0.,12.0
1979-03-08 23:41:34.710 ,3,1,0.,12.0,0.,12.0,0.,12.0,0.,12.0
1979-03-08 23:41:46.710 ,3,1,0.,12.0,0.,12.0,0.,12.0,0.,12.0
1979-03-08 23:41:58.710 ,4,1,0.,12.0,0.,12.0,0.,12.0,0.,12.0
1979-03-08 23:42:10.710 ,4,1,0.,12.0,0.,12.0,0.,12.0,0.,12.0
1979-03-08 23:42:22.710 ,5,1,0.,12.0,0.,12.0,0.,12.0,0.,12.0
1979-03-08 23:42:34.710 ,5,1,0.,12.0,0.,12.0,0.,12.0,0.,12.0
1979-03-08 23:42:46.710 ,6,1,0.,12.0,0.,12.0,0.,12.0,0.,12.0
1979-03-08 23:42:58.710 ,6,1,0.,12.0,0.,12.0,0.,12.0,0.,12.0
1979-03-08 23:43:10.710 ,7,1,0.,12.0,0.,12.0,0.,12.0,0.,12.0
1979-03-08 23:43:22.710 ,7,1,0.,12.0,0.,12.0,0.,12.0,0.,12.0
1979-03-08 23:43:34.710 ,7,1,0.,12.0,0.,12.0,0.,12.0,0.,12.0
1979-03-08 23:43:46.710 ,7,1,0.,12.0,0.,12.0,0.,12.0,0.,12.0
1979-03-08 23:43:58.720 ,6,1,0.,12.0,0.,12.0,0.,12.0,0.,12.0
1979-03-08 23:44:10.720 ,6,1,0.,12.0,0.,12.0,0.,12.0,0.,12.0
1979-03-08 23:44:22.720 ,5,1,0.,12.0,0.,12.0,0.,12.0,0.,12.0
1979-03-08 23:44:34.720 ,5,1,0.,12.0,0.,12.0,0.,12.0,0.,12.0
1979-03-08 23:44:46.720 ,4,1,0.,12.0,0.,12.0,0.,12.0,0.,12.0
1979-03-08 23:44:58.720 ,4,1,0.,12.0,0.,12.0,0.,12.0,0.,12.0
1979-03-08 23:45:10.720 ,3,1,0.,12.0,0.,12.0,0.,12.0,0.,12.0
1979-03-08 23:45:22.720 ,3,1,0.,12.0,0.,12.0,0.,12.0,0.,12.0
1979-03-08 23:45:34.720 ,2,1,0.,12.0,0.,12.0,0.,12.0,0.,12.0
1979-03-08 23:45:46.720 ,2,1,0.,12.0,0.,12.0,0.,12.0,0.,12.0
1979-03-08 23:45:58.720 ,1,1,0.,12.0,0.,12.0,0.,12.0,0.,12.0
1979-03-08 23:46:10.720 ,1,1,0.,12.0,0.,12.0,0.,12.0,0.,12.0
1979-03-08 23:21:10.710 ,0,1,0.,12.0,0.,12.0,0.,12.0,0.,12.0
1979-03-08 23:21:22.710 ,0,1,0.,12.0,0.,12.0,0.,12.0,0.,12.0
1979-03-08 23:21:43.710 ,1,1,,0,,0,,0,,0
1979-03-08 23:21:55.710 ,1,1,0.,12.0,0.,12.0,0.,12.0,0.,12.0
1979-03-08 23:21:58.710 ,2,1,0.,12.0,0.,12.0,0.,12.0,0.,12.0
1979-03-08 23:22:10.710 ,2,1,0.,12.0,0.,12.0,0.,12.0,0.,12.0
1979-03-08 23:22:22.710 ,3,1,0.,12.0,0.,12.0,0.,12.0,0.,12.0
1979-03-08 23:22:34.710 ,3,1,0.,12.0,0.,12.0,0.,12.0,0.,12.0
1979-03-08 23:22:46.710 ,4,1,0.,12.0,0.,12.0,0.,12.0,0.,12.0
1979-03-08 23:22:58.710 ,4,1,0.,12.0,0.,12.0,0.,12.0,0.,12.0
1979-03-08 23:23:10.710 ,5,1,0.,12.0,0.,12.0,0.,12.0,0.,12.0
1979-03-08 23:23:22.710 ,5,1,0.,12.0,0.,12.0,0.,12.0,0.,12.0
1979-03-08 23:23:34.710 ,6,1,0.,12.0,0.,12.0,0.,12.0,0.,12.0
1979-03-08 23:23:46.710 ,6,1,0.,12.0,0.,12.0,0.,12.0,0.,12.0
1979-03-08 23:23:58.710 ,7,1,0.,12.0,0.,12.0,0.,12.0,0.,12.0
1979-03-08 23:24:10.710 ,7,1,0.,12.0,0.,12.0,0.,12.0,0.,12.0
1979-03-08 23:24:22.710 ,7,1,0.,12.0,0.,12.0,0.,12.0,0.,12.0
1979-03-08 23:24:34.710 ,7,1,0.,12.0,0.,12.0,0.,12.0,0.,12.0
1979-03-08 23:24:46.710 ,6,1,0.,12.0,0.,12.0,0.,12.0,0.,12.0
1979-03-08 23:24:58.710 ,6,1,0.,12.0,0.,12.0,0.,12.0,0.,12.0
1979-03-08 23:25:10.710 ,5,1,0.,12.0,0.,12.0,0.,12.0,0.,12.0
1979-03-08 23:25:22.710 ,5,1,0.,12.0,0.,12.0,0.,12.0,0.,12.0
1979-03-08 23:25:34.710 ,4,1,0.,12.0,0.,12.0,0.,12.0,0.,12.0
1979-03-08 23:25:46.710 ,4,1,0.,12.0,0.,12.0,0.,12.0,0.,12.0
1979-03-08 23:25:58.710 ,3,1,0.,12.0,0.,12.0,0.,12.0,0.,12.0
1979-03-08 23:26:10.710 ,3,1,0.,12.0,0.,12.0,0.,12.0,0.,12.0
1979-03-08 23:26:22.710 ,2,1,0.,12.0,0.,12.0,0.,12.0,0.,12.0
1979-03-08 23:26:34.710 ,2,1,0.,12.0,0.,12.0,0.,12.0,0.,12.0
1979-03-08 23:26:46.710 ,1,1,0.,12.0,0.,12.0,0.,12.0,0.,12.0
1979-03-08 23:26:58.710 ,1,1,0.,12.0,0.,12.0,0.,12.0,0.,12.0
1979-03-08 23:27:10.710 ,0,1,0.,12.0,0.,12.0,0.,12.0,0.,12.0
1979-03-08 23:27:22.710 ,0,1,0.,12.0,0.,12.0,0.,12.0,0.,12.0
1979-03-08 23:27:34.710 ,0,1,0.,12.0,0.,12.0,0.,12.0,0.,12.0
1979-03-08 23:27:46.710 ,0,1,0.,12.0,0.,12.0,0.,12.0,0.,12.0